Location: Boiro
(42.6475°N, 8.8834°W)
Time: 18:49:26
(UTC+01:00)

Transit 2A Rocket - Pass Details

Date: 01 December 2021
Orbit: 584 x 918 km, 66.7° (Epoch: 19 January)

Event Time Altitude Azimuth Distance (km) Brightness Sun altitude
Rises 11:08:48 0° 246° (WSW) 3,339 8.2 18.3°
Reaches altitude 10° 11:11:32 10° 258° (WSW) 2,460 7.5 18.6°
Maximum altitude 11:16:23 28° 316° (NW) 1,611 6.3 19.0°
Drops below altitude 10° 11:21:30 10° 14° (NNE) 2,597 7.4 19.5°
Sets 11:24:29 0° 26° (NNE) 3,559 8.1 19.8°
